Powrót do katalogu

CZ-6A DEB

AktywnySSO
NORAD 54466·DEBRIS·🇨🇳 China

Wystrzelony Nov 11, 2022 z Taiyuan Satellite Launch Center

Loading…

Następne Przeloty (najbliższe 24 godziny)

TLE

ŚwieżeSource: Space-Track

Epoka: Sep 14, 2026, 10:54 UTC

1 54466U 22151GS  26257.45457128  .00000811  00000-0  41983-3 0  9992
2 54466  98.8252 268.6596 0030179  49.7886 310.5923 14.17480652198037

Śledź CZ-6A DEB w czasie rzeczywistym z AllMySat

Download on the App Store